[Iaude] MPEC M103: 2020 MP2 [a=0.98,e=0.29,i=13.8,H=22.2]

mpec at marsden.cfa.harvard.edu mpec at marsden.cfa.harvard.edu
Thu Jun 25 07:45:58 EDT 2020


M.P.E.C. 2020-M103                                Issued 2020 June 25, 11:44 UT

     The Minor Planet Electronic Circulars contain information on unusual
         minor planets and routine data on comets.  They are published
    on behalf of Division F of the International Astronomical Union by the
          Minor Planet Center, Smithsonian Astrophysical Observatory,
                          Cambridge, MA 02138, U.S.A.

             Prepared using the Tamkin Foundation Computer Network

                              MPC at CFA.HARVARD.EDU
            URL https://www.minorplanetcenter.net/    ISSN 1523-6714

                                    2020 MP2                                    


Observations:
     K20M02P  C2020 05 15.49388016 55 26.738+31 16 41.00         21.34GVEM103F51
     K20M02P  C2020 05 15.50769116 55 23.991+31 16 43.59         21.63GVEM103F51
     K20M02P  C2020 05 15.52109716 55 21.343+31 16 45.45         22.17GVEM103F51
     K20M02P  C2020 05 16.54146916 52 09.558+31 19 17.08         21.87GVEM103F51
     K20M02P  C2020 05 16.55449716 52 06.965+31 19 18.18         21.26GVEM103F51
     K20M02P  C2020 05 16.57156716 52 03.568+31 19 19.01         21.07GVEM103F51
     K20M02P  C2020 05 19.52490216 42 35.329+31 18 57.74         21.61GVEM103F52
     K20M02P  C2020 05 19.54850916 42 30.460+31 18 54.03         20.71GVEM103F52
     K20M02P  C2020 05 19.56033416 42 28.034+31 18 52.25         21.32GVEM103F52
     K20M02P  C2020 05 23.50770416 29 28.700+30 59 51.13         21.55GVEM103F51
     K20M02P  C2020 05 23.52115416 29 25.873+30 59 44.81         21.93GVEM103F51
     K20M02P  C2020 05 23.54793116 29 20.286+30 59 31.80         22.28GVEM103F51
     K20M02P* C2020 06 22.38835915 12 16.354+19 00 44.47         22.18wUEM103F51
     K20M02P  C2020 06 22.40054615 12 15.182+19 00 18.69         22.60wUEM103F51
     K20M02P  C2020 06 22.41275015 12 14.040+18 59 53.42         22.32wUEM103F51
     K20M02P  C2020 06 22.42502415 12 12.874+18 59 27.46         22.18wUEM103F51
     K20M02P ^C2020 06 23.30174015 10 59.542+18 29 03.24         22.18GVEM103568
     K20M02P ^C2020 06 23.30292115 10 59.434+18 29 00.76         22.27GVEM103568
     K20M02P ^C2020 06 23.30410315 10 59.326+18 28 58.33         22.35GVEM103568
     K20M02P KC2020 06 23.92770915 10 08.19 +18 07 03.0          22.5 GVEM103598
     K20M02P KC2020 06 23.94092015 10 07.06 +18 06 35.1          22.8 GVEM103598
     K20M02P KC2020 06 23.95392415 10 05.95 +18 06 07.6          22.9 GVEM103598
     K20M02P ^C2020 06 25.28739215 08 25.292+17 19 27.36         22.22GVEM103568
     K20M02P ^C2020 06 25.28891815 08 25.170+17 19 24.18         22.40GVEM103568
     K20M02P ^C2020 06 25.29044415 08 25.045+17 19 20.95         22.29GVEM103568

Observer details:
568 Mauna Kea.  Observers R. Wainscoat, L. Wells, S. Prunet, T. Burdullis.
    Measurers R. Weryk, R. Wainscoat.  3.6-m Canada-France-Hawaii Telescope +
    CCD.
598 Loiano.  Observer A. Carbognani.
F51 Pan-STARRS 1, Haleakala.  Observers J. Bulger, K. Chambers, T. Lowe, A.
    Schultz, M. Willman.  Measurers S. Chastel, M. Huber, Y. Ramanjooloo, R.
    Wainscoat, R. Weryk, K. Chambers, T. de Boer, L. Denneau, J. Fairlamb, H.
    Flewelling, C.-C. Lin, E. Magnier.  1.8-m Ritchey-Chretien + CCD.
F52 Pan-STARRS 2, Haleakala.  Observers J. Bulger, K. Chambers, T. Dukes, T.
    Lowe, A. Schultz, M. Willman.  Measurers S. Chastel, M. Huber, Y.
    Ramanjooloo, R. Wainscoat, R. Weryk.  1.8-m Ritchey-Chretien + CCD.

Orbital elements:
2020 MP2                                                 Earth MOID = 0.0330 AU
Epoch 2020 May 31.0 TT = JDT 2459000.5                  Veres
M 170.22174              (2000.0)            P               Q
n   1.01510021     Peri.  303.13076     +0.30554833     -0.93327245
a   0.9805358      Node   127.91909     +0.93375406     +0.25487384
e   0.2931392      Incl.   13.84628     +0.18639625     +0.25306493
P   0.97           H   22.2           G   0.15           U   5
Residuals in seconds of arc
200515 F51  0.2+  0.1+    200523 F51  0.1+  0.2-    200623 568  0.0   0.0
200515 F51  0.0   0.2+    200523 F51  0.0   0.0     200623 598  0.1+  0.2+
200515 F51  0.0   0.3-    200523 F51  0.1-  0.2+    200623 598  0.1+  0.3+
200516 F51  0.2-  0.1+    200622 F51  0.1+  0.0     200623 598  0.0   0.3+
200516 F51  0.0   0.1+    200622 F51  0.1-  0.2-    200625 568  0.1-  0.1-
200516 F51  0.0   0.3-    200622 F51  0.1+  0.1+    200625 568  0.0   0.0
200519 F52  0.1+  0.1-    200622 F51  0.0   0.1-    200625 568  0.0   0.0
200519 F52  0.0   0.1-    200623 568  0.1-  0.0
200519 F52  0.0   0.1+    200623 568  0.1-  0.0

Ephemeris:
2020 MP2                 a,e,i = 0.98, 0.29, 14                  q = 0.6931
Date    TT    R. A. (2000) Decl.     Delta      r    Elong.  Phase     V
2020 05 26    16 21 15.5 +30 36 45   0.3528  1.2622   128.2    39.1    22.0
...
2020 06 10    15 36 45.6 +25 34 42   0.3689  1.2680   126.1    40.3    22.1
...
2020 06 18    15 19 28.3 +21 29 18   0.3857  1.2661   122.6    42.6    22.3
...
2020 06 24    15 10 03.1 +18 04 43   0.4015  1.2624   119.3    44.6    22.4
2020 06 25    15 08 46.4 +17 29 37   0.4043  1.2616   118.7    45.0    22.5
2020 06 26    15 07 34.5 +16 54 21   0.4073  1.2607   118.1    45.3    22.5
...
2020 07 02    15 02 00.8 +13 20 26   0.4259  1.2545   114.5    47.5    22.6
...
2020 07 10    14 58 28.8 +08 35 44   0.4529  1.2431   109.5    50.5    22.8
...
2020 07 25    15 01 31.4 +00 04 06   0.5064  1.2126   100.2    55.5    23.2

M. P. C. Staff               (C) Copyright 2020 MPC           M.P.E.C. 2020-M103




More information about the Iaude mailing list